Overview Statistics Trail Chart Weather Telemetry Raw packets
 

This is the latest recevied weather packets stored in our database for station/object K5FEP. If no packets are shown the sender has not sent any weather packets the latest 10 day(s).

<< 2 3 4 5 6 7 8 >>
Time Temp. Humidity Pressure Rain* Wind** Luminosity Snow
1788623787 33.33° C 52% 1011.6 hPa 0 mm - 464 W/m² -
1788623486 32.78° C 53% 1011.4 hPa 0 mm - 433 W/m² -
1788623186 33.33° C 51% 1011.6 hPa 0 mm - 409 W/m² -
1788622881 33.89° C 49% 1011.3 hPa 0 mm - 479 W/m² -
1788622577 33.89° C 50% 1011.4 hPa 0 mm - 601 W/m² -
1788622272 33.89° C 50% 1011.6 hPa 0 mm - 853 W/m² -
1788621967 33.33° C 51% 1011.6 hPa 0 mm - 695 W/m² -
1788621662 33.89° C 50% 1011.5 hPa 0 mm - 755 W/m² -
1788621357 33.33° C 50% 1011.6 hPa 0 mm - 752 W/m² -
1788621052 33.89° C 49% 1011.6 hPa 0 mm - 761 W/m² -
1788620747 33.33° C 50% 1011.7 hPa 0 mm - 740 W/m² -
1788620445 33.89° C 50% 1011.8 hPa 0 mm - 673 W/m² -
1788620139 33.33° C 50% 1011.6 hPa 0 mm - 704 W/m² -
1788619838 33.33° C 51% 1011.6 hPa 0 mm - 687 W/m² -
1788619533 33.33° C 51% 1011.5 hPa 0 mm - 676 W/m² -
1788619232 33.33° C 51% 1011.8 hPa 0 mm - 656 W/m² -
1788618931 32.78° C 53% 1011.6 hPa 0 mm - 644 W/m² -
1788618627 32.78° C 53% 1011.6 hPa 0 mm - 629 W/m² -
1788618326 31.67° C 55% 1011.7 hPa 0 mm - 612 W/m² -
1788618021 31.67° C 55% 1011.8 hPa 0 mm - 595 W/m² -
1788617721 31.11° C 57% 1011.6 hPa 0 mm - 580 W/m² -
1788617418 31.11° C 58% 1011.8 hPa 0 mm - 562 W/m² -
1788617112 31.11° C 58% 1011.9 hPa 0 mm - 542 W/m² -
1788616811 30.56° C 59% 1011.6 hPa 0 mm - 523 W/m² -
1788616507 30.56° C 60% 1011.8 hPa 0 mm - 507 W/m² -

* Rain latest hour (hover to see other rain measurements)
** Current wind speed in m/s (hover to see current wind gust speed)